Weather History for Grand Junction, CO

Change the Weather History Date:

Saturday, October 29, 2011

  Actual Average Record
Temperature  
Mean Temperature 41 °F 47 °F  
Max Temperature 52 °F 60 °F 79 °F (1964)
Min Temperature 29 °F 35 °F 16 °F (1917)
Degree Days  
Heating Degree Days 24 18  
Month to date heating degree days 325 338  
Since 1 July heating degree days 335 412  
Cooling Degree Days 0 0  
Month to date cooling degree days 10 1  
Year to date cooling degree days 1222 1123  
Moisture  
Dew Point 27 °F    
Average Humidity 61    
Maximum Humidity 85    
Minimum Humidity 36    
Precipitation  
Precipitation 0.00 in 0.03 in 0.39 in (2013)
Month to date precipitation 0.97 1.00  
Year to date precipitation 8.86 8.04  
Snow  
Snow 0.00 in 0.00 in 2.30 in (1972)
Month to date snowfall 0.0 0.3  
Since 1 July snowfall 0.0 0.3  
Since 1 September snowfall 0.0 0.3  
Snow Depth 0.00 in    
Sea Level Pressure  
Sea Level Pressure 30.24 in    
Wind  
Wind Speed 4 mph (NE)    
Max Wind Speed 14 mph    
Max Gust Speed 16 mph    
Visibility 10 miles    
Events      
T = Trace of Precipitation, MM = Missing Value Source: NWS Daily Summary

Daily Weather History Graph

Daily Weather History Graph

Search for Another Location

Airport:

Trip Planner

Search our weather history database for the weather conditions in past years. The results will help you decide how hot, cold, wet, or windy it might be!

Date:

Astronomy

Oct. 29, 2011 Rise Set
Actual Time 7:38 AM MDT 6:16 PM MDT
Civil Twilight 7:10 AM MDT 6:44 PM MDT
Nautical Twilight 6:39 AM MDT 7:15 PM MDT
Astronomical Twilight 6:08 AM MDT 7:46 PM MDT
Moon 11:01 AM MDT (10/29) 8:45 PM MDT (10/29)
Length of Visible Light 11h 33m
Length of Day
10h 38m
Waxing Crescent, 12% of the Moon is Illuminated
Oct 29
Waxing Crescent
Nov 2
First Quarter
Nov 10
Full
Nov 18
Last Quarter
Nov 24
New

Hourly Weather History & Observations

Time (MDT) Temp. Windchill Dew Point Humidity Pressure Visibility Wind Dir Wind Speed Gust Speed Precip Events Conditions
12:53 AM 36.0 °F 31.1 °F 27.0 °F 70% 30.25 in 10.0 mi East 5.8 mph - N/A   Clear
1:53 AM 36.0 °F - 27.0 °F 70% 30.25 in 10.0 mi Calm Calm - N/A   Clear
2:53 AM 30.9 °F - 27.0 °F 85% 30.25 in 10.0 mi Calm Calm - N/A   Clear
3:53 AM 32.0 °F 27.5 °F 26.6 °F 80% 30.26 in 10.0 mi East 4.6 mph - N/A   Clear
4:53 AM 30.0 °F 26.5 °F 26.1 °F 85% 30.24 in 10.0 mi East 3.5 mph - N/A   Clear
5:53 AM 30.0 °F - 25.0 °F 82% 30.25 in 10.0 mi Calm Calm - N/A   Clear
6:53 AM 28.9 °F 21.1 °F 24.1 °F 82% 30.27 in 10.0 mi SE 8.1 mph - N/A   Clear
7:53 AM 28.9 °F 23.9 °F 24.1 °F 82% 30.30 in 10.0 mi East 4.6 mph - N/A   Clear
8:53 AM 34.0 °F - 26.1 °F 73% 30.30 in 10.0 mi Calm Calm - N/A   Clear
9:53 AM 37.0 °F 34.5 °F 27.0 °F 67% 30.28 in 10.0 mi East 3.5 mph - N/A   Clear
10:53 AM 43.0 °F 40.3 °F 27.0 °F 53% 30.27 in 10.0 mi South 4.6 mph - N/A   Clear
11:53 AM 46.9 °F - 27.0 °F 46% 30.24 in 10.0 mi Calm Calm - N/A   Clear
12:53 PM 50.0 °F - 25.0 °F 38% 30.21 in 10.0 mi Calm Calm - N/A   Clear
1:53 PM 52.0 °F - 27.0 °F 38% 30.18 in 10.0 mi WNW 3.5 mph - N/A   Scattered Clouds
2:53 PM 52.0 °F - 27.0 °F 38% 30.16 in 10.0 mi WNW 8.1 mph - N/A   Clear
3:53 PM 52.0 °F - 26.1 °F 37% 30.17 in 10.0 mi NW 11.5 mph - N/A   Clear
4:53 PM 50.0 °F - 28.4 °F 43% 30.20 in 10.0 mi West 5.8 mph - N/A   Partly Cloudy
5:53 PM 48.2 °F - 30.2 °F 50% 30.20 in 10.0 mi NW 5.8 mph - N/A   Clear
6:53 PM 45.0 °F 41.2 °F 30.0 °F 56% 30.22 in 10.0 mi WSW 6.9 mph - N/A   Clear
7:53 PM 42.1 °F 40.2 °F 30.0 °F 62% 30.23 in 10.0 mi NNW 3.5 mph - N/A   Clear
8:53 PM 37.9 °F 35.5 °F 30.0 °F 73% 30.25 in 10.0 mi East 3.5 mph - N/A   Clear
9:53 PM 39.0 °F 34.8 °F 28.9 °F 67% 30.24 in 10.0 mi ENE 5.8 mph - N/A   Clear
10:53 PM 39.0 °F - 28.9 °F 67% 30.23 in 10.0 mi Calm Calm - N/A   Clear
11:53 PM 34.0 °F - 28.9 °F 82% 30.24 in 10.0 mi Calm Calm - N/A   Clear